Location: Unspecified
(0.0000°N, 0.0000°E)
Time: 03:01:03
(UTC+00:00)

JUGNU - Pass Details

Date: 13 December 2017
Orbit: 837 x 864 km, 20.0° (Epoch: 26 April)

Event Time Altitude Azimuth Distance (km) Brightness Sun altitude
Rises 19:40:47 0° 224° (SW) 3,400 ? -24.3°
Reaches altitude 10° 19:44:49 10° 198° (SSW) 2,458 ? -25.2°
Maximum altitude 19:47:36 13° 169° (S) 2,216 ? -25.8°
Enters shadow 19:50:00 11° 144° (SE) 2,393 ? -26.4°
